Voltar ao catálogo

CZ-4 DEB

AtivoPO
NORAD 20862·DEBRIS·🇨🇳 China

Lançado Sep 3, 1990 de Taiyuan Satellite Launch Center

Loading…

Próximas Passagens (próximas 24 horas)

TLE

AtualizadoSource: Space-Track

Época: Sep 14, 2026, 18:20 UTC

1 20862U 90081AA  26257.76413825  .00000087  00000-0  13787-3 0  9998
2 20862  98.9276  83.0611 0231158 329.2377  42.7669 13.62178693785384

Acompanhe CZ-4 DEB em tempo real com AllMySat

Download on the App Store